Starlink 35826

operational
NORAD ID: 66360 Int'l Des: 2025-254 Owner: SPXS Country: US Constellation: starlink
LEOCIRCULAR

Starlink 35826について

説明を読み込み中...

リアルタイム位置

3D地球を読み込み中...

次回通過

高度履歴

Altitude vs Time

uPlot chart will show altitude changes over time

軌道要素

1 66360C 25254AD 25311.11437500 .00526100 00000+0 77595-3 0 3119
2 66360 53.1600 93.7399 0009191 261.9713 103.0265 16.03645445 13
Epoch: Nov 7, 2025 • Age: 24 hours

現在のステータス

高度 264.5 km
速度 7.75 km/s
衛星直下点 -15.59°S, 36.16°E
打ち上げ日 Nov 6, 2025
運用期間 1 days
タイプ internet

技術仕様

分類 Payload
質量 575.00 kg
乾燥質量 530.00 kg
総質量 575.00 kg
長さ 0.30 m
直径 4.10 m
スパン 29.00 m
形状 Box + pan
製造者 SPXS
バスタイプ Starlink V2MO
フェーズステータス In Orbit
所有者/国 SPXS/US

大規模コンステレーション

Loading constellations...